Regional Weather Roundup
Issued by NWS Newport/Morehead, NC

Current Version | Previous Version | Text Only | Print | Product List | Glossary Off
Versions: 1 2 3 4 5 6 7 8 9 10 11 12 13 14 15 16 17 18 19 20 21 22 23 24 25 26 27 28 29 30 31 32 33 34 35 36 37 38 39 40 41 42 43 44 45 46 47 48 49 50
413 ASUS42 KMHX 220813 RWRMHX WEATHER ROUNDUP FOR EASTERN NORTH CAROLINA NATIONAL WEATHER SERVICE NEWPORT/MOREHEAD CITY NC 300 AM EST SUN JAN 22 2017 NOTE: "FAIR" INDICATES FEW OR NO CLOUDS BELOW 12,000 FEET WITH NO SIGNIFICANT WEATHER AND/OR OBSTRUCTIONS TO VISIBILITY NCZ015>017-031-032-045>047-102-103-220900- NORTH COAST CITY SKY/WX TMP DP RH WIND PRES REMARKS EDENTON FOG 52 52 100 CALM 29.64S VSB 1/4 ELIZABETH CITY FOG 56 56 100 SW5 29.62S VSB 1/4 KITTY HAWK NOT AVBL MANTEO CLOUDY 57 57 100 CALM 29.63S FOG $$ NCZ045>047-081-094-103-104-220900- CENTRAL COAST CITY SKY/WX TMP DP RH WIND PRES REMARKS FRISCO CLOUDY 62 59 90 W10G25 29.65R FOG $$ NCZ095-097-098-100-101-220900- SOUTHERN COAST CITY SKY/WX TMP DP RH WIND PRES REMARKS BEAUFORT CLEAR 60 57 89 W9 29.67R CEDAR ISLAND NOT AVBL JACKSONVILLE CLOUDY 61 59 93 SW7 29.67R PINEY ISLAND SUNNY N/A N/A N/A SW10 29.66R WILMINGTON CLOUDY 59 58 96 SW8 29.69R $$ NCZ011>013-027>030-043-044-078>080-089-090>093-098-220900- COASTAL PLAIN CITY SKY/WX TMP DP RH WIND PRES REMARKS AHOSKIE DRZL/FOG 51 51 99 CALM 29.65R VSB 1/4 CLINTON MOCLDY 61 60 97 SW7 29.66R ELIZABETHTOWN CLOUDY 61 60 96 SW8 29.68R GOLDSBORO PTCLDY 59 59 100 SW8 29.61F GREENVILLE FOG 55 55 100 S3 29.67S VSB 1/2 HAVELOCK PTCLDY 61 57 87 SW12 29.67R KENANSVILLE CLOUDY 61 59 94 SW6 29.64S KINSTON CLOUDY 62 61 97 SW3 29.64S NEW BERN PTCLDY 59 58 96 SW8 29.66S RICHLANDS MOCLDY 60 58 92 SW9 29.66S ROCKY MOUNT FOG 55 55 100 CALM 29.64R VSB 1/4 WASHINGTON CLOUDY 56 56 99 CALM N/A FOG WHITEVILLE CLOUDY 62 57 85 SW12G18 29.68R $$ AMZ130-135-150-152-154-156-158-170-250-252-270-ANZ085-086-088-633-658-670-220900- MARINE OBSERVATIONS STATION/POSITION TIME TEMP WIND PRES WAVE SWELL AIR SEA DIR/SP/G HT/PER HT/PER (UTC) (F) (DEG/KT/KT) (MB) (FT/S) (FT/S) CHESAPEAKE LIGHT NOT AVBL 64 E VA BEACH 0750 63 58 150/ 14/ 16 1002.1 5/12 3/12 DUCK 0748 60 46 200/ 11/ 14 1002.4 2 E DUCK 0730 46 N/A 3/13 2/13 OREGON INLET 0742 56 50 230/ 7/ 8 1003.2 13E OREGON INLT NOT AVBL HATTERAS CG 0748 63 55 230/ 12/ 19 1003.6 DIAMOND BUOY 0750 72 73 240/ 21/ 27 1003.3 7/ 6 3/14 CAPE LOOKOUT 0700 62 250/ 12/ 14 1003.9 BEAUFORT LAB 0748 59 52 250/ 6/ 13 1003.6 30 SE NEW RVR IN 0708 64 66 260/ 16/ 19 1004.6 30 SE NEW RVR IN 0743 66 N/A 5/ 6 2/11 27 SE WRIGHTSVLE 0708 63 69 260/ 16/ 21 1004.5 5 SE WRIGHTSVLE 0708 57 240/ 12/ 14 1004.3 225 S CAPE HAT 0750 72 71 200/ 17/ 21 1007.1 6/ 6 2/11 41 SE CHARLESTON 0650 69 68 250/ 14/ 16 1004.9 5/ 6 2/ 8 $$

USA.gov is the U.S. government's official web portal to all federal, state and local government web resources and services.